Location: *
(47.7167°N, 1.7333°W)
Time: 03:12:23
(UTC+00:00)

SPOT 1/Viking Rocket - Pass Details

Date: 09 April 2020
Orbit: 776 x 795 km, 98.5° (Epoch: 04 June)

Event Time Altitude Azimuth Distance (km) Brightness Sun altitude
Exits shadow 21:30:43 59° 179° (S) 914 3.6 -24.3°
Maximum altitude 21:31:43 82° 255° (WSW) 808 3.5 -24.4°
Drops below altitude 10° 21:36:59 10° 344° (NNW) 2,376 6.9 -25.0°
Sets 21:39:20 0° 346° (NNW) 3,310 7.8 -25.3°
